Wheeler Observed Data For Previous 48 Hours

Caption
Day and Hour Reservoir Elevation (behind dam)* Tailwater Elevation (below dam)* Average Hourly Discharge*
1/19/2019 1 AM CST 550.63 507.25 109,913
1/19/2019 2 AM CST 550.64 507.21 109,831
1/19/2019 3 AM CST 550.69 507.22 110,026
1/19/2019 4 AM CST 550.72 507.28 110,056
1/19/2019 5 AM CST 550.76 507.28 109,954
1/19/2019 6 AM CST 550.78 507.25 109,957
1/19/2019 7 AM CST 550.79 507.31 110,312
1/19/2019 8 AM CST 550.79 507.45 109,950
1/19/2019 9 AM CST 550.85 507.37 110,131
1/19/2019 10 AM CST 550.91 507.49 110,231
1/19/2019 11 AM CST 550.97 507.56 110,168
1/19/2019 12 PM CST 551.02 507.62 110,198
1/19/2019 1 PM CST 551.05 507.74 120,511
1/19/2019 2 PM CST 551.08 507.77 129,344
1/19/2019 3 PM CST 551.07 507.85 134,278
1/19/2019 4 PM CST 551.08 507.92 138,988
1/19/2019 5 PM CST 551.03 508.00 139,067
1/19/2019 6 PM CST 550.87 508.01 138,710
1/19/2019 7 PM CST 550.80 507.96 138,271
1/19/2019 8 PM CST 550.82 507.96 138,150
1/19/2019 9 PM CST 550.86 507.93 138,418
1/19/2019 10 PM CST 550.86 507.89 138,310
1/19/2019 11 PM CST 550.92 507.86 138,471
1/20/2019 12 AM CST 550.98 507.82 138,804
1/20/2019 1 AM CST 550.99 507.86 138,900
1/20/2019 2 AM CST 551.00 507.80 138,868
1/20/2019 3 AM CST 551.11 507.78 138,861
1/20/2019 4 AM CST 551.17 507.78 139,357
1/20/2019 5 AM CST 551.20 507.76 139,233
1/20/2019 6 AM CST 551.23 507.81 139,329
1/20/2019 7 AM CST 551.31 507.78 139,786
1/20/2019 8 AM CST 551.41 507.82 139,801
1/20/2019 9 AM CST 551.43 507.73 140,003
1/20/2019 10 AM CST 551.49 507.72 140,262
1/20/2019 11 AM CST 551.58 507.68 140,329
1/20/2019 12 PM CST 551.65 507.64 140,468
1/20/2019 1 PM CST 551.72 507.62 140,748
1/20/2019 2 PM CST 551.68 507.64 151,189
1/20/2019 3 PM CST 551.67 507.74 164,070
1/20/2019 4 PM CST 551.67 507.73 164,629
1/20/2019 5 PM CST 551.65 507.76 164,804
1/20/2019 6 PM CST 551.64 507.79 164,485
1/20/2019 7 PM CST 551.64 507.82 164,444
1/20/2019 8 PM CST 551.64 507.83 164,493
1/20/2019 9 PM CST 551.66 507.87 164,608
1/20/2019 10 PM CST 551.72 507.88 164,776
1/20/2019 11 PM CST 551.76 507.88 164,755
1/21/2019 12 AM CST 551.79 507.92 165,025
1/21/2019 1 AM CST 551.81 507.93 165,129
1/21/2019 2 AM CST 551.84 507.95 165,281
1/21/2019 3 AM CST 551.89 507.97 165,293
1/21/2019 4 AM CST 551.92 508.00 165,509

Elevations are in feet above sea level. Discharges are in cubic feet per second and are reported at the end of the hour.